TimeEST,TemperatureF,Dew PointF,Humidity,Sea Level PressureIn,VisibilityMPH,Wind Direction,Wind SpeedMPH,Gust SpeedMPH,PrecipitationIn,Events,Conditions,WindDirDegrees,DateUTC
12:54 AM,37.0,25.0,62,29.76,10.0,West,6.9,-,N/A,,Overcast,270,2014-02-24 05:54:00
1:54 AM,36.0,19.0,50,29.77,10.0,WNW,11.5,-,N/A,,Overcast,290,2014-02-24 06:54:00
2:54 AM,33.1,15.1,48,29.75,10.0,WNW,12.7,-,N/A,,Partly Cloudy,290,2014-02-24 07:54:00
3:54 AM,32.0,10.0,40,29.76,10.0,WNW,13.8,26.5,N/A,,Clear,290,2014-02-24 08:54:00
4:54 AM,28.9,9.0,43,29.77,10.0,WNW,13.8,-,N/A,,Clear,290,2014-02-24 09:54:00
5:54 AM,27.0,9.0,47,29.79,10.0,WNW,17.3,-,N/A,,Clear,290,2014-02-24 10:54:00
6:54 AM,26.1,10.0,51,29.79,10.0,WNW,17.3,24.2,N/A,,Clear,290,2014-02-24 11:54:00
7:54 AM,26.1,12.0,55,29.80,10.0,WNW,17.3,25.3,N/A,,Clear,290,2014-02-24 12:54:00
8:54 AM,27.0,10.9,51,29.80,10.0,West,12.7,23.0,N/A,,Clear,280,2014-02-24 13:54:00
9:54 AM,27.0,10.9,51,29.79,10.0,WNW,12.7,-,N/A,,Mostly Cloudy,300,2014-02-24 14:54:00
10:54 AM,28.0,12.0,51,29.78,10.0,WNW,16.1,28.8,N/A,,Overcast,300,2014-02-24 15:54:00
11:54 AM,27.0,9.0,47,29.77,10.0,WNW,19.6,32.2,N/A,,Mostly Cloudy,290,2014-02-24 16:54:00
12:54 PM,28.0,9.0,45,29.75,10.0,WNW,16.1,31.1,N/A,,Mostly Cloudy,290,2014-02-24 17:54:00
1:54 PM,26.1,7.0,44,29.75,10.0,West,18.4,32.2,N/A,,Overcast,270,2014-02-24 18:54:00
2:54 PM,27.0,3.9,37,29.77,10.0,West,17.3,31.1,N/A,,Mostly Cloudy,270,2014-02-24 19:54:00
3:54 PM,25.0,5.0,43,29.78,10.0,West,17.3,28.8,N/A,,Partly Cloudy,280,2014-02-24 20:54:00
4:54 PM,24.1,8.1,51,29.81,10.0,West,29.9,38.0,N/A,,Mostly Cloudy,270,2014-02-24 21:54:00
5:12 PM,23.0,14.0,68,29.78,4.0,West,16.1,26.5,0.00,Snow,Light Snow,280,2014-02-24 22:12:00
5:29 PM,21.9,10.9,63,29.78,10.0,West,18.4,28.8,0.00,,Scattered Clouds,280,2014-02-24 22:29:00
5:54 PM,21.9,9.0,58,29.84,10.0,West,17.3,28.8,0.00,,Clear,270,2014-02-24 22:54:00
6:54 PM,21.0,3.0,46,29.87,10.0,WNW,27.6,38.0,N/A,,Clear,290,2014-02-24 23:54:00
7:54 PM,19.9,3.0,48,29.89,10.0,West,16.1,27.6,N/A,,Clear,280,2014-02-25 00:54:00
8:54 PM,19.9,3.0,48,29.91,10.0,West,20.7,32.2,N/A,,Clear,280,2014-02-25 01:54:00
9:54 PM,19.0,3.9,52,29.93,10.0,West,17.3,25.3,N/A,,Scattered Clouds,280,2014-02-25 02:54:00
10:54 PM,19.0,5.0,54,29.93,10.0,West,17.3,25.3,N/A,,Mostly Cloudy,270,2014-02-25 03:54:00
11:54 PM,19.0,5.0,54,29.93,10.0,West,16.1,31.1,N/A,,Mostly Cloudy,270,2014-02-25 04:54:00